Wind_Speed
15 14 14 13 11 10 8 8 6 4 3 2 0 0 3 4 5 6 7 8 8 12 11 13 9 6 4 2 3 1 3 2 4 9 6 17 7 4 6 14 3 2 24 27 25
15 15 14 13 12 10 8 8 6 4 2 1 1 2 3 4 5 7 11 9 10 10 11 10 9 7 4 3 2 2 2 6 6 8 11 13 14 11 8 6 12 22 27 26 23
15 15 14 13 12 10 8 8 5 3 2 1 1 1 4 4 4 6 15 14 11 9 9 11 7 4 3 2 3 2 3 3 7 12 22 16 11 8 18 3 14 35 32 27 24
15 15 14 14 12 10 8 7 5 3 2 1 2 2 3 5 3 11 16 14 12 12 11 14 12 7 1 0 3 2 7 5 14 20 16 13 15 11 4 3 26 31 32 30 27
15 15 14 14 12 10 8 7 5 2 1 2 2 2 3 3 3 12 17 12 14 15 18 13 11 4 2 2 3 1 5 7 16 19 21 17 12 8 4 17 25 26 29 29 27
16 15 15 14 12 9 7 7 5 2 2 3 3 3 3 2 3 9 19 16 15 19 17 13 5 8 2 1 2 3 2 10 16 18 14 11 8 6 11 24 27 29 28 27 27
16 16 15 13 12 9 7 7 3 1 3 4 4 3 2 3 5 12 19 17 12 10 13 7 5 1 2 4 7 7 11 10 10 5 5 20 2 3 22 26 31 29 27 26 26
16 16 15 13 11 7 6 4 1 1 4 4 4 5 3 3 10 13 18 19 15 9 6 3 5 5 4 2 7 6 6 3 0 6 8 2 3 4 23 28 26 27 28 27 27
17 16 15 12 9 5 4 3 3 3 3 5 5 3 2 4 13 15 16 19 15 4 5 6 1 3 2 3 4 7 3 3 3 3 7 3 3 11 24 23 22 25 29 28 28
17 16 14 12 6 3 3 4 5 4 4 3 3 3 4 3 15 16 16 6 7 4 5 4 2 3 3 4 1 3 5 3 7 5 5 5 3 9 24 23 23 25 29 29 30
18 16 14 10 3 1 2 3 2 1 3 2 3 3 6 6 12 17 17 13 5 4 2 4 4 3 5 4 2 5 5 4 2 3 3 3 5 11 20 20 18 24 26 28 32
19 16 13 8 1 4 6 4 6 3 5 3 8 8 6 7 7 11 19 10 6 5 6 4 5 11 8 7 3 5 2 4 2 3 4 3 4 7 17 25 27 28 31 34 34
19 15 12 6 3 6 7 6 7 4 1 3 5 7 6 12 8 16 21 14 6 4 6 6 8 3 6 8 7 5 8 6 1 3 3 5 6 5 12 21 24 25 29 31 36
19 15 9 4 6 6 4 5 5 2 5 5 3 3 9 6 3 12 20 12 2 7 6 5 7 6 7 5 7 6 5 5 6 4 0 4 4 5 7 16 18 27 26 33 35
19 13 7 2 3 7 2 3 4 2 3 2 4 3 10 8 6 7 22 15 6 5 5 6 2 1 4 6 10 4 11 7 8 5 2 1 2 7 3 13 19 26 29 33 34
17 11 5 3 7 8 5 1 1 6 1 2 5 4 5 3 2 6 9 12 6 3 1 6 6 3 4 3 12 11 12 9 5 3 3 6 7 6 5 8 7 23 32 36 37
15 9 2 4 9 8 5 2 5 4 4 1 3 3 2 3 2 3 6 4 6 3 3 3 5 4 4 7 4 5 5 3 3 1 6 2 3 9 6 10 10 15 29 37 40
10 3 3 6 9 7 6 5 2 2 5 3 3 3 5 2 1 2 3 4 2 4 3 3 7 5 5 9 10 8 7 5 7 5 4 4 6 6 1 9 10 10 28 26 31
5 9 9 6 8 6 6 4 6 6 3 4 3 4 1 1 3 2 4 3 4 7 8 3 6 5 5 3 10 6 4 3 6 3 2 4 7 3 2 8 14 17 12 13 17
8 11 11 9 6 3 5 4 4 4 4 1 2 1 3 1 2 3 3 2 2 4 3 7 5 4 5 3 1 7 6 2 2 5 5 5 4 5 2 2 4 8 11 15 15
4 5 5 5 4 1 4 6 5 7 3 1 2 3 2 1 2 1 1 1 1 1 6 5 3 8 2 5 8 2 2 2 5 4 5 3 6 2 3 4 5 6 10 12 14
5 4 3 3 4 2 1 3 5 4 4 1 3 3 3 2 1 1 2 3 4 1 1 2 5 5 11 0 1 4 3 4 5 4 1 3 6 2 6 8 8 6 11 10 8
4 4 5 3 3 4 6 4 3 4 4 3 3 3 1 3 1 1 2 3 5 1 1 5 1 3 10 6 1 4 2 3 4 3 6 5 6 4 9 10 8 11 10 11 15
3 3 5 6 6 2 4 5 6 5 2 6 3 5 3 3 4 2 2 3 9 2 1 6 4 6 7 6 2 2 4 2 3 4 4 6 4 9 10 9 8 7 9 11 10
6 2 3 2 4 4 1 4 5 5 4 4 4 3 3 2 0 1 3 4 4 1 3 5 4 3 2 2 3 2 3 3 2 2 4 3 7 8 10 9 9 9 9 11 13
5 4 3 2 4 4 3 4 4 7 3 2 4 3 1 5 6 4 4 3 5 5 2 3 1 2 3 4 6 4 6 2 3 2 2 3 2 3 13 14 10 8 12 15 16
9 6 3 4 4 2 2 4 4 6 2 3 2 3 3 2 5 8 6 3 3 2 2 3 5 3 4 4 4 3 3 1 2 2 5 4 5 9 7 11 13 12 16 16 14
Wind_Direction
354 354 352 350 350 350 335 320 330 320 303 296 306 157 173 177 176 177 162 153 159 159 150 138 126 143 133 60 348 12 54 150 147 157 133 137 132 84 120 139 91 82 150 154 153
351 353 351 348 349 350 334 324 332 322 302 291 301 161 177 175 189 181 163 161 160 154 162 161 111 121 82 62 335 103 75 201 191 150 154 148 132 134 131 115 96 116 141 150 154
349 351 349 347 348 346 335 327 335 324 290 258 219 186 165 169 166 168 166 167 150 152 161 174 164 109 78 342 184 174 215 258 163 147 141 134 122 119 133 119 170 145 152 157 158
348 349 349 346 345 344 333 330 334 318 276 197 203 174 170 140 136 150 163 170 156 165 161 128 143 126 188 307 264 256 238 248 148 147 132 140 130 122 76 199 162 155 155 160 166
348 348 348 346 342 341 332 331 331 305 242 174 174 176 159 181 159 171 167 168 161 159 172 139 151 153 225 214 315 235 326 129 139 137 136 132 120 134 76 148 160 159 164 168 172
348 349 347 346 340 339 330 328 322 278 190 165 163 158 157 142 150 162 171 182 177 184 195 188 218 205 171 247 99 312 357 102 132 138 139 117 121 114 146 160 161 166 172 176 178
348 349 347 346 341 337 330 328 318 231 167 158 156 148 147 24 131 153 168 179 174 191 197 229 171 152 30 356 351 15 86 68 46 69 88 114 41 157 163 167 164 175 179 182 186
347 348 349 347 344 337 333 338 22 157 156 145 153 138 104 91 148 154 166 171 159 120 177 189 89 90 46 4 15 37 55 67 56 95 164 63 228 137 169 167 173 182 189 193 195
346 348 349 347 347 344 355 35 84 115 137 141 153 124 114 156 159 162 171 176 178 153 69 155 85 67 66 69 54 18 92 49 176 63 156 176 182 176 177 177 182 192 197 202 207
345 347 349 346 359 21 45 50 74 90 118 113 125 126 162 176 164 176 170 180 188 191 122 82 54 76 17 54 195 134 146 209 191 214 175 151 181 162 181 187 195 201 207 210 213
343 344 347 344 32 82 44 87 27 52 267 239 102 41 148 128 176 183 181 155 127 138 59 9 352 210 187 73 225 205 144 217 328 48 336 159 139 184 191 201 199 215 217 213 221
341 342 345 341 87 114 88 82 58 318 316 254 240 234 191 134 171 188 190 182 175 187 123 36 249 250 114 159 179 276 56 244 341 7 81 19 264 196 190 213 211 211 216 224 227
338 339 344 340 186 135 99 58 19 3 145 267 221 231 221 211 211 192 187 194 196 176 177 170 233 172 172 176 175 212 198 195 331 51 69 360 303 186 207 215 227 233 236 225 224
337 336 341 340 175 156 132 33 15 0 63 282 226 214 182 181 220 193 200 184 203 209 167 227 257 222 146 190 164 224 179 121 109 76 273 16 282 275 205 208 214 223 231 242 233
333 330 326 228 195 170 161 28 7 329 74 179 191 184 173 169 143 180 191 193 178 199 121 243 292 109 157 208 165 249 162 120 103 83 88 232 289 272 108 233 222 218 224 233 236
328 322 308 249 188 176 165 79 331 42 202 222 165 164 122 193 143 127 160 205 229 181 211 248 298 287 228 77 160 121 76 57 61 58 307 211 174 269 197 252 263 214 222 228 233
327 321 269 178 160 174 175 162 44 127 337 161 197 136 134 171 179 151 161 170 174 130 273 331 234 236 195 84 30 80 86 37 17 65 233 252 174 250 311 307 281 236 219 219 225
342 24 99 149 153 166 153 55 144 243 255 304 55 67 158 134 40 78 100 226 217 107 102 192 318 195 196 168 175 178 161 158 194 197 240 86 235 250 341 350 4 258 227 215 215
54 82 76 128 140 127 155 74 210 207 292 336 43 95 91 98 149 101 186 203 232 165 168 165 270 295 225 136 142 215 225 187 100 28 98 213 280 242 32 31 33 47 108 119 165
104 94 76 83 131 140 78 219 230 223 314 48 128 84 129 344 117 88 172 204 233 189 199 212 286 216 288 108 134 157 162 74 9 161 218 257 267 241 308 57 52 53 72 89 130
116 89 76 83 97 97 146 231 259 257 206 235 156 93 106 115 111 136 163 279 327 14 157 147 149 258 159 193 206 140 194 94 130 124 182 228 258 267 227 182 121 98 109 121 117
69 58 82 103 35 50 144 212 311 294 235 178 100 95 126 127 70 78 206 236 0 258 236 165 146 250 226 1 122 151 244 149 125 240 186 159 274 346 133 138 159 144 135 139 148
59 81 53 42 75 327 321 300 265 321 356 57 63 61 100 126 115 277 266 283 329 343 203 188 355 351 336 9 14 108 56 88 95 82 191 155 260 146 142 151 175 165 145 134 132
36 43 43 79 70 72 357 330 326 353 41 69 96 71 87 58 16 146 342 292 315 270 85 137 127 173 198 223 167 107 0 88 130 119 173 225 191 186 179 168 167 154 139 146 154
41 67 33 353 356 3 335 337 333 348 55 46 37 71 139 117 89 240 245 301 298 208 108 138 153 132 327 0 77 99 27 23 173 174 178 253 190 177 176 179 161 156 169 165 160
47 24 11 19 324 353 357 17 340 326 338 19 111 185 143 160 187 221 201 207 247 324 62 7 162 111 13 13 29 96 37 43 63 108 100 125 80 110 129 139 164 190 193 184 170
32 9 356 357 354 61 302 314 279 324 326 42 237 147 216 250 257 261 246 181 188 225 303 72 136 108 228 347 330 6 341 320 186 189 162 208 180 144 146 171 186 199 202 194 185
Height
1518 1516 1514 1511 1510 1509 1507 1506 1506 1505 1505 1506 1506 1506 1506 1507 1508 1510 1511 1513 1512 1513 1514 1515 1517 1518 1521 1522 1523 1524 1529 1532 1524 1526 1528 1529 1532 1537 1539 1540 1543 1544 1545 1551 1556
1517 1515 1513 1511 1509 1508 1506 1505 1504 1504 1504 1504 1505 1505 1505 1506 1507 1508 1511 1511 1512 1513 1514 1514 1516 1517 1520 1522 1523 1523 1531 1525 1516 1517 1522 1527 1530 1535 1540 1542 1545 1545 1550 1554 1558
1516 1515 1512 1510 1508 1506 1505 1504 1503 1503 1503 1503 1503 1503 1504 1505 1507 1507 1509 1510 1512 1514 1515 1515 1514 1517 1519 1521 1523 1523 1526 1515 1514 1516 1520 1528 1532 1535 1539 1543 1543 1541 1548 1554 1559
1515 1514 1512 1509 1507 1505 1504 1503 1502 1502 1502 1502 1502 1503 1503 1505 1509 1506 1509 1511 1513 1514 1515 1514 1514 1516 1520 1522 1521 1523 1516 1515 1514 1518 1522 1528 1532 1536 1539 1539 1542 1546 1548 1552 1557
1515 1513 1511 1509 1506 1504 1503 1502 1501 1501 1501 1501 1502 1502 1504 1505 1505 1506 1509 1511 1514 1515 1516 1515 1514 1517 1520 1519 1519 1517 1516 1516 1517 1521 1523 1529 1533 1536 1541 1541 1546 1549 1552 1554 1558
1514 1512 1510 1508 1505 1503 1502 1500 1500 1500 1501 1501 1501 1502 1504 1504 1504 1506 1509 1512 1515 1515 1517 1519 1518 1518 1519 1519 1518 1517 1516 1520 1523 1525 1528 1530 1536 1537 1544 1544 1548 1550 1553 1556 1559
1513 1511 1509 1506 1504 1502 1501 1499 1499 1499 1500 1500 1501 1502 1503 1505 1504 1507 1510 1513 1516 1518 1519 1520 1519 1520 1518 1518 1518 1516 1520 1524 1530 1530 1533 1534 1541 1540 1542 1545 1548 1552 1554 1556 1559
1512 1510 1507 1505 1503 1501 1500 1499 1499 1499 1499 1500 1501 1503 1503 1504 1505 1508 1512 1515 1517 1519 1520 1520 1519 1519 1520 1522 1520 1524 1528 1540 1532 1531 1537 1536 1549 1541 1543 1546 1549 1552 1554 1556 1558
1510 1508 1506 1504 1502 1501 1499 1499 1499 1499 1499 1500 1502 1503 1504 1504 1506 1509 1514 1516 1518 1520 1521 1521 1521 1521 1523 1526 1534 1537 1549 1544 1536 1530 1531 1537 1544 1540 1543 1547 1550 1552 1553 1555 1558
1509 1507 1505 1502 1501 1500 1500 1500 1500 1500 1501 1501 1503 1506 1506 1505 1507 1510 1515 1517 1519 1519 1520 1521 1520 1524 1525 1531 1548 1545 1546 1540 1537 1528 1529 1535 1538 1539 1542 1544 1547 1550 1552 1554 1554
1507 1505 1503 1501 1501 1501 1501 1500 1504 1504 1501 1501 1502 1503 1503 1506 1509 1511 1514 1518 1519 1520 1523 1521 1524 1532 1531 1528 1529 1528 1531 1536 1532 1529 1533 1534 1537 1538 1539 1544 1547 1548 1550 1551 1552
1505 1503 1502 1500 1500 1501 1501 1501 1503 1505 1501 1499 1500 1502 1504 1506 1508 1510 1514 1518 1518 1523 1523 1530 1535 1519 1525 1528 1527 1529 1533 1537 1534 1531 1534 1541 1540 1537 1537 1536 1538 1542 1545 1546 1549
1504 1502 1501 1500 1500 1501 1502 1502 1502 1501 1502 1498 1498 1499 1502 1504 1505 1507 1512 1515 1516 1521 1523 1531 1521 1516 1521 1526 1530 1532 1535 1535 1538 1536 1537 1540 1541 1535 1532 1533 1536 1537 1539 1543 1543
1502 1500 1499 1499 1502 1500 1502 1502 1501 1501 1515 1502 1497 1497 1500 1501 1503 1503 1507 1512 1514 1518 1520 1523 1513 1514 1520 1526 1526 1540 1524 1531 1539 1545 1559 1548 1564 1536 1527 1525 1528 1531 1534 1534 1537
1499 1498 1497 1498 1498 1500 1502 1502 1502 1502 1537 1498 1496 1496 1497 1501 1501 1503 1505 1509 1513 1514 1518 1518 1512 1515 1522 1519 1520 1529 1519 1529 1539 1553 1557 1556 1564 1533 1527 1527 1518 1521 1525 1527 1530
1496 1495 1495 1496 1497 1500 1501 1502 1504 1521 1527 1499 1493 1495 1498 1498 1500 1502 1505 1508 1509 1512 1514 1515 1509 1509 1509 1509 1516 1523 1531 1541 1550 1556 1570 1550 1554 1533 1530 1516 1510 1515 1518 1520 1524
1493 1492 1493 1494 1497 1499 1501 1503 1524 1534 1501 1501 1498 1495 1498 1500 1500 1500 1504 1509 1518 1526 1527 1517 1512 1505 1505 1519 1521 1524 1537 1565 1571 1575 1572 1553 1555 1526 1515 1510 1510 1506 1509 1512 1515
1491 1491 1492 1493 1496 1498 1501 1506 1524 1509 1507 1496 1497 1499 1503 1500 1502 1502 1506 1514 1508 1514 1533 1533 1536 1508 1500 1506 1521 1526 1529 1549 1573 1580 1563 1553 1555 1524 1515 1512 1506 1501 1502 1508 1511
1492 1493 1494 1495 1498 1499 1502 1526 1521 1511 1499 1499 1498 1505 1506 1503 1505 1506 1510 1514 1508 1508 1526 1536 1527 1501 1497 1498 1504 1525 1533 1520 1552 1557 1562 1549 1531 1515 1514 1511 1508 1506 1505 1508 1510
1494 1495 1497 1498 1499 1501 1505 1518 1509 1501 1498 1497 1504 1504 1511 1507 1508 1508 1511 1506 1506 1504 1503 1515 1531 1504 1498 1498 1502 1507 1509 1536 1547 1563 1561 1548 1536 1526 1516 1514 1514 1514 1515 1514 1512
1496 1497 1500 1500 1501 1501 1515 1514 1504 1496 1497 1498 1501 1505 1507 1506 1507 1511 1511 1505 1503 1504 1505 1511 1518 1506 1501 1505 1509 1514 1519 1525 1527 1538 1546 1550 1539 1512 1514 1513 1516 1517 1518 1518 1518
1497 1501 1502 1502 1503 1509 1511 1507 1501 1496 1494 1494 1496 1499 1504 1507 1509 1510 1510 1506 1502 1502 1505 1507 1521 1527 1511 1496 1496 1498 1502 1511 1531 1533 1543 1541 1537 1512 1512 1516 1519 1520 1521 1521 1521
1500 1503 1504 1505 1516 1515 1508 1505 1501 1497 1496 1495 1498 1499 1501 1506 1513 1510 1508 1502 1500 1499 1502 1503 1521 1535 1516 1506 1497 1500 1504 1512 1518 1523 1536 1538 1531 1515 1516 1518 1520 1522 1523 1524 1523
1504 1507 1507 1507 1511 1512 1514 1509 1504 1498 1498 1497 1500 1500 1503 1509 1509 1511 1509 1502 1500 1498 1498 1500 1521 1522 1531 1514 1506 1506 1507 1505 1513 1527 1530 1527 1516 1513 1514 1516 1520 1523 1524 1526 1528
1507 1514 1516 1518 1514 1515 1515 1511 1509 1503 1499 1499 1501 1502 1504 1512 1512 1511 1508 1504 1498 1497 1498 1501 1514 1512 1512 1506 1506 1509 1510 1507 1506 1511 1512 1508 1514 1510 1512 1514 1519 1522 1526 1527 1530
1514 1516 1516 1516 1514 1514 1514 1514 1512 1506 1503 1502 1503 1503 1504 1509 1507 1509 1505 1505 1503 1498 1498 1502 1516 1512 1513 1508 1509 1511 1509 1506 1507 1512 1512 1512 1512 1507 1511 1514 1520 1524 1527 1528 1529
1518 1518 1518 1518 1515 1516 1516 1514 1510 1509 1503 1501 1501 1502 1503 1502 1501 1500 1500 1500 1500 1501 1503 1506 1513 1521 1524 1516 1511 1516 1510 1509 1506 1505 1508 1511 1506 1508 1513 1516 1519 1523 1527 1527 1527